Houma, LA

10:57 AM CDT on March 27, 2017 (GMT -0500)
Houma-terrebonne

Weather History for KHUM - May, 2014

Change the Weather History Date:

Monday, May 19, 2014

  Actual Average Record
Temperature  
Mean Temperature 71 °F -  
Max Temperature 82 °F 84 °F 93 °F (1988)
Min Temperature 60 °F 67 °F 50 °F (2002)
Cooling Degree Days 6    
Growing Degree Days 21 (Base 50)    
Moisture  
Dew Point 61 °F    
Average Humidity 78    
Maximum Humidity 94    
Minimum Humidity 45    
Precipitation  
Precipitation 0.00 in - - ()
Sea Level Pressure  
Sea Level Pressure 30.14 in    
Wind  
Wind Speed 2 mph (SE)    
Max Wind Speed 9 mph    
Max Gust Speed -    
Visibility 6 miles    
Events Fog    
Averages and records for this station are not official NWS values.
T = Trace of Precipitation, MM = Missing Value Source: NWS Daily Summary

Daily Weather History Graph

Daily Weather History Graph

Search for Another Location

Airport or City:

Trip Planner

Search our weather history database for the weather conditions in past years. The results will help you decide how hot, cold, wet, or windy it might be!

Date:

Astronomy

May. 19, 2014 Rise Set
Actual Time 6:07 AM CDT 7:50 PM CDT
Civil Twilight 5:41 AM CDT 8:17 PM CDT
Nautical Twilight 5:10 AM CDT 8:48 PM CDT
Astronomical Twilight 4:36 AM CDT 9:22 PM CDT
Moon No Moon Rise 10:58 AM CDT (5/19)
Length of Visible Light 14h 35m
Length of Day
13h 43m
Waning Gibbous, 71% of the Moon is Illuminated
May 19
Waning Gibbous
May 21
Last Quarter
May 28
New
Jun 5
First Quarter
Jun 12
Full

Hourly Weather History & Observations

Time (CDT) Temp. Heat Index Dew Point Humidity Pressure Visibility Wind Dir Wind Speed Gust Speed Precip Events Conditions
12:15 AM 64.0 °F - 59.2 °F 84% 30.15 in 7.0 mi Calm Calm - N/A   Clear
12:35 AM 63.7 °F - 59.7 °F 87% 30.14 in 7.0 mi Calm Calm - N/A   Clear
1:15 AM 63.1 °F - 60.3 °F 90% 30.14 in 5.0 mi Calm Calm - N/A   Clear
1:35 AM 62.2 °F - 59.4 °F 90% 30.13 in 7.0 mi Calm Calm - N/A   Clear
1:55 AM 62.8 °F - 60.1 °F 91% 30.13 in 5.0 mi Calm Calm - N/A   Clear
2:15 AM 62.4 °F - 59.9 °F 91% 30.12 in 5.0 mi Calm Calm - N/A   Clear
2:35 AM 62.2 °F - 59.9 °F 92% 30.12 in 5.0 mi Calm Calm - N/A   Clear
2:55 AM 61.9 °F - 59.5 °F 92% 30.12 in 1.5 mi Calm Calm - N/A   Mist
3:15 AM 62.1 °F - 59.9 °F 93% 30.12 in 2.5 mi Calm Calm - N/A   Clear
3:35 AM 62.4 °F - 60.3 °F 93% 30.12 in 1.8 mi Calm Calm - N/A   Scattered Clouds
3:55 AM 62.6 °F - 60.6 °F 93% 30.12 in 2.5 mi Calm Calm - N/A   Scattered Clouds
4:35 AM 61.5 °F - 59.4 °F 93% 30.12 in 0.8 mi Calm Calm - N/A   Mist
4:55 AM 62.2 °F - 60.3 °F 93% 30.12 in 1.0 mi Calm Calm - N/A   Mist
5:15 AM 61.7 °F - 59.9 °F 94% 30.12 in 1.2 mi Calm Calm - N/A   Mist
5:35 AM 61.7 °F - 59.9 °F 94% 30.12 in 0.8 mi Calm Calm - N/A   Mist
5:55 AM 61.7 °F - 59.7 °F 93% 30.13 in 0.2 mi Calm Calm - N/A Fog Fog
6:50 AM 60.8 °F - 59.0 °F 94% 30.14 in 5.0 mi Calm Calm - N/A   Clear
9:50 AM 78.8 °F - 59.0 °F 51% 30.17 in 7.0 mi SSE 6.9 mph - N/A   Clear
10:47 AM 80.6 °F 80.8 °F 57.2 °F 45% 30.17 in 7.0 mi SSE 8.1 mph - N/A   Clear
2:50 PM 82.4 °F 83.4 °F 62.6 °F 51% 30.16 in 7.0 mi SSE 6.9 mph - N/A   Scattered Clouds
3:50 PM 82.4 °F 82.9 °F 60.8 °F 48% 30.15 in 7.0 mi SSE 6.9 mph - N/A   Scattered Clouds
4:47 PM 82.4 °F 82.9 °F 60.8 °F 48% 30.16 in 7.0 mi SSE 9.2 mph - N/A   Scattered Clouds
5:50 PM 80.6 °F 81.5 °F 60.8 °F 51% 30.16 in 7.0 mi SE 9.2 mph - N/A   Scattered Clouds
6:50 PM 78.8 °F - 62.6 °F 57% 30.12 in 7.0 mi SE 9.2 mph - N/A   Scattered Clouds
7:15 PM 77.7 °F - 62.6 °F 60% 30.12 in 10.0 mi SE 9.2 mph - N/A   Clear
7:35 PM 76.5 °F - 63.1 °F 63% 30.13 in 10.0 mi SE 9.2 mph - N/A   Clear
7:55 PM 74.5 °F - 63.3 °F 68% 30.13 in 7.0 mi SE 5.8 mph - N/A   Clear
8:15 PM 73.2 °F - 62.8 °F 70% 30.13 in 10.0 mi SE 5.8 mph - N/A   Clear
8:35 PM 72.1 °F - 62.6 °F 72% 30.14 in 10.0 mi ESE 4.6 mph - N/A   Clear
8:55 PM 71.4 °F - 62.8 °F 74% 30.14 in 10.0 mi ESE 3.5 mph - N/A   Clear
9:15 PM 70.7 °F - 63.1 °F 77% 30.14 in 10.0 mi ESE 3.5 mph - N/A   Clear
9:35 PM 70.5 °F - 63.1 °F 77% 30.15 in 10.0 mi ESE 4.6 mph - N/A   Clear
9:55 PM 70.2 °F - 63.1 °F 78% 30.15 in 7.0 mi ESE 4.6 mph - N/A   Scattered Clouds
10:15 PM 70.7 °F - 63.5 °F 78% 30.16 in 10.0 mi ESE 4.6 mph - N/A   Clear
10:35 PM 69.8 °F - 63.3 °F 80% 30.16 in 7.0 mi East 3.5 mph - N/A   Clear
10:55 PM 68.0 °F - 63.1 °F 84% 30.16 in 7.0 mi ESE 3.5 mph - N/A   Clear
11:15 PM 67.5 °F - 63.7 °F 88% 30.15 in 7.0 mi Calm Calm - N/A   Clear
11:35 PM 67.1 °F - 63.9 °F 89% 30.15 in 7.0 mi SE 3.5 mph - N/A   Clear
11:55 PM 67.3 °F - 64.6 °F 91% 30.15 in 7.0 mi Calm Calm - N/A   Clear